Location: Rosenheim
(47.8408°N, 12.2113°E)
Time: 07:58:47
(UTC+01:00)

N. Korean satellite - Visible Passes

Search period start: 17 January 2018 00:00
Search period end: 27 January 2018 00:00
Orbit: 459 x 515 km, 97.2° (Epoch: 16 January)

Date Brightness Start Highest point End Pass type
(mag) Time Alt. Az. Time Alt. Az. Time Alt. Az.
17 Jan 9.6 06:08:01 10° NE 06:10:28 18° E 06:12:55 10° SE visible
17 Jan 7.5 18:19:53 10° S 18:23:26 51° W 18:26:56 10° NNW visible
18 Jan 6.5 17:56:08 10° SSE 17:59:45 81° ENE 18:03:20 10° N visible
19 Jan 6.9 06:53:23 10° NNE 06:56:50 65° E 07:00:16 10° S visible
19 Jan 6.9 17:32:44 10° SE 17:36:09 41° ENE 17:39:31 10° N visible
19 Jan 9.8 19:07:40 10° SW 19:09:51 15° W 19:12:02 10° NW visible
20 Jan 8.5 06:29:57 10° NNE 06:33:06 32° E 06:36:15 10° SSE visible
20 Jan 8.8 18:42:55 10° SSW 18:46:01 27° W 18:49:07 10° NW visible
21 Jan 9.6 06:06:52 10° NE 06:09:18 18° E 06:11:42 10° SE visible
21 Jan 7.4 18:18:46 10° S 18:22:16 52° W 18:25:45 10° NNW visible
22 Jan 6.4 07:15:53 10° N 07:19:19 63° WNW 07:22:44 10° SSW visible
22 Jan 6.4 17:55:01 10° SSE 17:58:35 79° ENE 18:02:08 10° N visible
23 Jan 7.0 06:52:13 10° NNE 06:55:39 64° E 06:59:05 10° S visible
23 Jan 7.0 17:31:37 10° SE 17:34:58 40° ENE 17:38:18 10° N visible
23 Jan 9.8 19:06:29 10° SW 19:08:40 15° W 19:10:51 10° NW visible
24 Jan 8.5 06:28:46 10° NNE 06:31:54 32° E 06:35:02 10° SSE visible
24 Jan 8.8 18:41:45 10° SSW 18:44:50 27° W 18:47:54 10° NW visible
25 Jan 9.7 06:05:41 10° NE 06:08:05 17° E 06:10:29 10° SE visible
25 Jan 7.4 18:17:35 10° S 18:21:04 53° W 18:24:31 10° NNW visible
26 Jan 6.4 17:53:51 10° SSE 17:57:23 77° ENE 18:00:53 10° N visible
